[[{"header":{"parameterUnit":"m.s-1","parameterCategory":1,"la1":30.2991,"la2":30.254,"lo1":-89.0895,"lo2":-89.0444,"dy":0.0017,"dx":0.0017,"nx":28,"ny":28,"refTime":"2025-07-22T09:00:00:Z","depth":0,"parameterNumber":2,"parameterNumberName":"U-component_of_WINDS"},"data":[0,0,0,0,0,0,0,0,0,0,0,0,0,0,0,0,0,0,0,0,0,0,0,0,0,0,0,0,0,0,0,0,0,0,0,0,0,0,0,0,0,0,0,0,0,0,0,0,0,0,0,0,0,0,0,0,0,0,2.973,2.9731,0,2.981,2.9811,2.9811,2.9696,2.9692,2.9688,2.9684,2.977,2.9776,2.9782,0,0,0,0,0,0,0,0,0,0,0,0,0,2.9483,2.9488,2.973,2.9731,2.9732,2.981,2.9811,2.9812,2.9697,2.9692,2.9687,2.9682,2.9768,2.9775,2.9783,0,0,0,0,0,0,0,0,0,0,0,0,0,2.958,2.949,2.973,2.9684,2.9681,2.9809,2.9811,2.9812,2.9698,2.9692,2.9686,2.968,2.9766,2.9775,2.9784,2.9962,0,0,2.9811,2.9815,0,0,0,0,0,0,0,0,2.9574,2.9589,2.969,2.9688,2.9684,2.9737,2.9755,2.9863,2.97,2.9692,2.9684,2.9677,2.9764,2.9773,2.9802,2.9966,2.997,2.9812,2.9818,2.9822,2.9824,0,0,0,0,0,0,0,2.9568,2.9585,2.9762,2.9692,2.9688,2.9661,2.9668,2.9775,2.9761,2.9692,2.9684,2.9694,2.9762,2.9793,2.9803,2.9971,2.9812,2.982,2.9826,2.9829,3.0286,3.0292,0,0,0,0,0,0,2.9566,2.958,2.9759,2.9764,2.9613,2.967,2.9678,2.9726,2.976,2.9759,2.97,2.9689,2.978,2.9792,2.9805,3.0016,2.9822,2.983,2.9835,3.0279,3.0287,3.0295,0,0,0,0,0,0,2.9561,2.9583,2.9756,2.967,2.969,2.9681,2.9736,2.9731,2.9762,2.9766,2.9763,2.9734,2.9776,2.9792,2.9924,3.0018,2.9834,2.9843,3.0272,3.0282,3.0291,3.044,0,0,0,0,0,0,2.9555,2.9582,2.9649,2.9672,2.9695,2.9872,2.9742,2.9737,2.9778,2.9764,2.9797,2.9797,2.9773,2.9911,2.9933,3.0027,2.985,3.0263,3.0276,3.0288,3.0427,3.0454,3.0477,0,0,0,0,0,2.9546,2.9689,2.9653,2.9675,2.9778,2.9878,2.9891,2.9859,2.9786,2.9853,2.9856,2.9796,3.0004,2.9925,2.9949,3.0047,3.0257,3.0272,3.0287,3.0415,3.0448,3.0476,0,0,0,0,0,0,2.9678,2.9691,2.9651,2.9805,2.9841,2.9858,2.9942,2.9895,2.9954,2.9939,2.9898,2.9906,3.0047,3.006,2.9972,3.0222,3.0118,3.0139,3.0208,3.0239,3.0264,3.0258,2.9857,0,0,0,0,0,2.9725,2.9804,2.9811,2.9947,2.9966,2.9952,2.9994,2.9966,3.0002,3.0017,3.0029,3.0068,3.0141,3.0191,3.0259,3.0428,3.0434,3.0507,3.0533,3.0553,3.0572,3.0662,3.0695,3.0344,3.0344,3.0343,0,0,2.9823,2.984,2.9892,2.9973,2.9998,3.0082,2.9965,3.0059,3.0121,3.0032,3.0156,3.0166,3.0207,3.0357,3.0424,3.0373,3.067,3.0572,3.0589,3.0596,3.0681,3.0714,3.0744,3.0354,3.0352,3.0351,0,0,3.0044,3.0065,3.0179,3.0206,3.0244,3.0233,3.0261,3.0285,3.0288,3.0412,3.0347,3.0421,3.0549,3.058,3.0613,3.0846,3.0793,3.087,3.1001,3.109,3.1118,3.1142,3.1225,3.1256,3.0888,3.0888,3.0888,0,3.0162,3.0284,3.0245,3.0343,3.0381,3.0302,3.0419,3.0447,3.0507,3.0535,3.0476,3.0635,3.0657,3.0813,3.087,3.0899,3.093,3.0866,3.1116,3.114,3.1163,3.1242,3.1273,3.0897,3.0896,3.0895,3.0894,0,3.0426,3.0512,3.06,3.0658,3.0706,3.0813,3.0791,3.0845,3.0813,3.0809,3.0936,3.0959,3.103,3.1065,3.1036,3.1219,3.1185,3.1123,3.1018,3.1206,3.1279,3.1309,3.091,3.0907,3.0904,3.0902,0,0,3.0733,3.0767,3.08,3.0825,3.0861,3.0928,3.1032,3.11,3.1146,3.119,3.1277,3.1387,3.1328,3.1366,3.1339,3.1417,3.16,3.1344,3.1344,3.1391,3.1803,3.185,3.1886,3.1565,3.1571,3.1575,3.18,0,3.0954,3.1131,3.1099,3.1272,3.1351,3.1278,3.1369,3.1401,3.1401,3.1469,3.1468,3.1546,3.1463,3.1485,3.1559,3.1562,3.1682,3.1545,3.1646,3.165,3.1638,3.1924,3.1974,3.2185,3.1828,3.1833,3.1836,0,3.1234,3.1287,3.1468,3.1491,3.1523,3.1605,3.1664,3.173,3.1766,3.176,3.1802,3.1761,3.1865,3.1759,3.1903,3.181,3.185,3.1858,3.1865,3.1873,3.1755,3.194,3.2251,3.2283,3.1881,3.1878,3.1875,0,3.144,3.1556,3.1679,3.1703,3.1733,3.1792,3.1808,3.1838,3.1881,3.1934,3.1961,3.2027,3.2063,3.2115,3.2093,3.2017,3.2241,3.2133,3.224,3.2241,3.2291,3.2288,3.2613,3.2317,3.2316,3.2315,3.2315,0,3.1689,3.1803,3.1771,3.1847,3.1973,3.1935,3.2061,3.2068,3.2095,3.2172,3.2113,3.2187,3.2153,3.2225,3.2208,3.233,3.2347,3.2346,3.234,3.2351,3.2351,3.2376,3.2361,3.2324,3.2322,3.232,3.2319,0,3.194,3.1923,3.2053,3.207,3.2078,3.2169,3.2185,3.2257,3.2251,3.2349,3.237,3.2362,3.2443,3.2426,3.2516,3.2505,3.2658,3.2634,3.2645,3.2639,3.2747,3.2737,3.3099,3.3145,3.282,3.2823,3.2826,0,3.21,3.2186,3.2212,3.2259,3.2278,3.2354,3.2397,3.2364,3.2412,3.246,3.2526,3.2601,3.266,3.2794,3.2797,3.2865,3.2843,3.2965,3.2853,3.2861,3.2844,3.2839,3.2848,3.2987,3.2991,3.2994,3.2996,0,3.2386,3.2374,3.2437,3.2499,3.2552,3.2599,3.2641,3.2683,3.2653,3.271,3.2791,3.2837,3.2928,3.3004,3.3068,3.3085,3.3037,3.3032,3.306,3.3072,3.3075,3.3074,3.2706,3.3023,3.3021,3.3019,3.3017,3.3016,3.2596,3.2669,3.2699,3.2772,3.2799,3.284,3.2907,3.291,3.2977,3.3047,3.3024,3.3117,3.3151,3.3231,3.3256,3.3329,3.3284,3.3325,3.3335,3.3346,3.3359,3.3063,3.3341,3.334,3.3339,3.3339,3.3338,0,3.2879,3.2894,3.2962,3.3022,3.308,3.3027,3.3071,3.3123,3.3205,3.3241,3.3299,3.3393,3.3467,3.3476,3.3545,3.3602,3.3582,3.3622,3.3617,3.3622,3.3396,3.3364,3.3637,3.3637,3.3637,3.3637,3.3637,3.3637,3.3033,3.3152,3.3144,3.3277,3.3291,3.3381,3.341,3.3448,3.3475,3.3582,3.3643,3.3647,3.3672,3.3743,3.3809,3.381,3.3838,3.3887,3.3879,3.3668,3.3638,3.361,3.358,3.3893,3.3894,3.4099,3.4101,3.4103]},{"header":{"parameterUnit":"m.s-1","parameterCategory":1,"la1":30.2991,"la2":30.254,"lo1":-89.0895,"lo2":-89.0444,"dy":0.0017,"dx":0.0017,"nx":28,"ny":28,"refTime":"2025-07-22T09:00:00:Z","depth":0,"parameterNumber":3,"parameterNumberName":"V-component_of_WINDS"},"data":[0,0,0,0,0,0,0,0,0,0,0,0,0,0,0,0,0,0,0,0,0,0,0,0,0,0,0,0,0,0,0,0,0,0,0,0,0,0,0,0,0,0,0,0,0,0,0,0,0,0,0,0,0,0,0,0,0,0,-0.0943,-0.0943,0,-0.0972,-0.0972,-0.0972,-0.1008,-0.1008,-0.1009,-0.1009,-0.1037,-0.1038,-0.1038,0,0,0,0,0,0,0,0,0,0,0,0,0,-0.0919,-0.0919,-0.0943,-0.0943,-0.0944,-0.0972,-0.0972,-0.0972,-0.1007,-0.1008,-0.1009,-0.1009,-0.1037,-0.1038,-0.1038,0,0,0,0,0,0,0,0,0,0,0,0,0,-0.0937,-0.0919,-0.0943,-0.0965,-0.0967,-0.0972,-0.0972,-0.0973,-0.1007,-0.1008,-0.1009,-0.101,-0.1037,-0.1038,-0.1038,-0.1023,0,0,-0.1039,-0.1039,0,0,0,0,0,0,0,0,-0.0936,-0.0938,-0.0961,-0.0963,-0.0966,-0.0987,-0.0974,-0.099,-0.1007,-0.0992,-0.1009,-0.101,-0.102,-0.1022,-0.1025,-0.1025,-0.1026,-0.1039,-0.1039,-0.1039,-0.1039,0,0,0,0,0,0,0,-0.0934,-0.0936,-0.0954,-0.0961,-0.0964,-0.0973,-0.0976,-0.0977,-0.1001,-0.0993,-0.0996,-0.0999,-0.1021,-0.1025,-0.1026,-0.1026,-0.1039,-0.1039,-0.1039,-0.104,-0.1017,-0.1016,0,0,0,0,0,0,-0.093,-0.0935,-0.0954,-0.0955,-0.0952,-0.0973,-0.0977,-0.0979,-0.1001,-0.1005,-0.0998,-0.1,-0.1024,-0.1026,-0.1027,-0.1012,-0.1039,-0.104,-0.104,-0.1017,-0.1016,-0.1016,0,0,0,0,0,0,-0.0929,-0.0931,-0.0952,-0.0946,-0.0949,-0.0972,-0.0975,-0.0979,-0.0983,-0.1005,-0.1009,-0.0997,-0.1025,-0.1027,-0.1024,-0.1014,-0.104,-0.104,-0.1018,-0.1017,-0.1016,-0.0982,0,0,0,0,0,0,-0.0928,-0.0931,-0.0925,-0.0946,-0.095,-0.0949,-0.0974,-0.0979,-0.0984,-0.0987,-0.1005,-0.1009,-0.1025,-0.1024,-0.1025,-0.1015,-0.104,-0.1019,-0.1018,-0.1016,-0.0984,-0.0979,-0.0976,0,0,0,0,0,-0.0927,-0.0914,-0.0925,-0.0927,-0.0943,-0.0948,-0.095,-0.097,-0.0983,-0.0977,-0.0992,-0.1008,-0.1015,-0.1023,-0.1025,-0.1014,-0.102,-0.1018,-0.1017,-0.0986,-0.098,-0.0976,0,0,0,0,0,0,-0.0891,-0.0917,-0.0929,-0.0922,-0.0933,-0.0954,-0.0948,-0.0963,-0.097,-0.0973,-0.0997,-0.1001,-0.0996,-0.1005,-0.1014,-0.1002,-0.102,-0.1018,-0.0996,-0.0991,-0.0987,-0.0985,-0.1041,0,0,0,0,0,-0.0882,-0.0884,-0.0907,-0.0898,-0.0903,-0.0924,-0.0927,-0.0942,-0.0954,-0.0958,-0.0972,-0.0983,-0.0988,-0.099,-0.0995,-0.0986,-0.0991,-0.098,-0.0976,-0.0972,-0.097,-0.0967,-0.0962,-0.101,-0.101,-0.101,0,0,-0.0864,-0.0878,-0.0878,-0.0891,-0.0901,-0.0903,-0.0928,-0.0928,-0.093,-0.0958,-0.0957,-0.0968,-0.0981,-0.0976,-0.0974,-0.0983,-0.0959,-0.097,-0.0967,-0.0967,-0.0964,-0.096,-0.0956,-0.1008,-0.1009,-0.1009,0,0,-0.0831,-0.0842,-0.0836,-0.0846,-0.0862,-0.0876,-0.0875,-0.0895,-0.0903,-0.0902,-0.0924,-0.0926,-0.0934,-0.0943,-0.0948,-0.0921,-0.0937,-0.0922,-0.0901,-0.0897,-0.0893,-0.089,-0.0881,-0.0877,-0.0921,-0.092,-0.092,0,-0.0806,-0.0809,-0.0832,-0.0831,-0.0837,-0.0863,-0.0858,-0.0867,-0.0882,-0.0886,-0.0896,-0.0907,-0.0918,-0.0915,-0.0909,-0.0913,-0.0912,-0.092,-0.0892,-0.0889,-0.0887,-0.0878,-0.0874,-0.0919,-0.0919,-0.0919,-0.0919,0,-0.0778,-0.078,-0.0774,-0.079,-0.0795,-0.0792,-0.0814,-0.0816,-0.0831,-0.0844,-0.0844,-0.0859,-0.0868,-0.0869,-0.0882,-0.0868,-0.0874,-0.0888,-0.0906,-0.088,-0.0872,-0.0869,-0.0916,-0.0917,-0.0917,-0.0918,0,0,-0.0722,-0.0751,-0.0748,-0.0756,-0.0776,-0.0778,-0.0777,-0.0787,-0.0788,-0.0799,-0.0799,-0.0805,-0.0819,-0.0826,-0.0841,-0.0838,-0.0816,-0.0853,-0.0853,-0.0845,-0.0802,-0.0791,-0.0787,-0.0827,-0.0826,-0.0826,-0.0801,0,-0.0693,-0.0692,-0.0713,-0.0707,-0.071,-0.0736,-0.0735,-0.0747,-0.076,-0.0765,-0.0779,-0.0784,-0.0801,-0.0806,-0.0804,-0.0819,-0.0807,-0.0821,-0.0827,-0.0827,-0.0822,-0.0783,-0.0771,-0.0746,-0.0798,-0.0797,-0.0797,0,-0.0658,-0.0668,-0.0662,-0.0683,-0.0685,-0.0684,-0.0695,-0.0699,-0.0714,-0.0724,-0.0731,-0.0749,-0.075,-0.0768,-0.077,-0.0778,-0.0782,-0.079,-0.079,-0.0791,-0.081,-0.0782,-0.0739,-0.0735,-0.0793,-0.0793,-0.0793,0,-0.0618,-0.0629,-0.0628,-0.0634,-0.0658,-0.0657,-0.0667,-0.0682,-0.0687,-0.0698,-0.0701,-0.0711,-0.0716,-0.0724,-0.0744,-0.0755,-0.0743,-0.0763,-0.0752,-0.0751,-0.0747,-0.0747,-0.0704,-0.075,-0.075,-0.075,-0.075,0,-0.0583,-0.0578,-0.061,-0.0609,-0.0605,-0.063,-0.0625,-0.0638,-0.0652,-0.0654,-0.0677,-0.0679,-0.0706,-0.071,-0.0726,-0.0725,-0.0728,-0.0736,-0.074,-0.0733,-0.0732,-0.0736,-0.0738,-0.0749,-0.075,-0.075,-0.075,0,-0.0537,-0.0558,-0.0558,-0.0582,-0.0588,-0.0584,-0.0604,-0.0604,-0.062,-0.0622,-0.0624,-0.0648,-0.0655,-0.0676,-0.0688,-0.0699,-0.0694,-0.0702,-0.0689,-0.0691,-0.0679,-0.068,-0.0636,-0.0632,-0.0681,-0.068,-0.068,0,-0.0513,-0.051,-0.0534,-0.0538,-0.0547,-0.0552,-0.0558,-0.0582,-0.0587,-0.0604,-0.0602,-0.0611,-0.062,-0.063,-0.0648,-0.0658,-0.0666,-0.065,-0.0668,-0.0662,-0.0666,-0.0666,-0.0666,-0.0646,-0.0646,-0.0645,-0.0645,0,-0.0468,-0.0479,-0.0487,-0.0498,-0.0504,-0.0514,-0.0526,-0.0527,-0.0554,-0.0559,-0.0567,-0.0573,-0.0586,-0.0595,-0.0608,-0.0619,-0.0636,-0.0639,-0.0637,-0.063,-0.0623,-0.0627,-0.0678,-0.064,-0.064,-0.0641,-0.0641,-0.0641,-0.0433,-0.0432,-0.0449,-0.0457,-0.0468,-0.0479,-0.0481,-0.0497,-0.0504,-0.0516,-0.0531,-0.0537,-0.0553,-0.0572,-0.0582,-0.0587,-0.0597,-0.0594,-0.0593,-0.0592,-0.0589,-0.0623,-0.059,-0.059,-0.059,-0.059,-0.059,0,-0.039,-0.0403,-0.041,-0.0425,-0.0431,-0.0448,-0.0462,-0.0466,-0.0472,-0.0485,-0.0494,-0.0503,-0.0512,-0.0532,-0.0543,-0.0544,-0.0552,-0.0546,-0.0546,-0.0548,-0.058,-0.058,-0.0539,-0.0539,-0.0539,-0.0539,-0.0539,-0.0539,-0.0368,-0.0368,-0.0381,-0.0388,-0.0401,-0.0407,-0.0414,-0.0424,-0.0435,-0.0445,-0.0452,-0.0466,-0.0482,-0.0495,-0.0504,-0.051,-0.0513,-0.0504,-0.0512,-0.0541,-0.0546,-0.055,-0.0551,-0.0504,-0.0504,-0.048,-0.048,-0.0479]}]]